Вернуться в каталог

CZ-2D DEB

АктивенSSO
NORAD 36291·DEBRIS·🇨🇳 China

Запущен Nov 5, 2008 с Jiuquan Satellite Launch Center

Loading…

Ближайшие Пролёты (ближайшие 24 часа)

TLE

УстаревающийSource: Space-Track

Эпоха: Sep 6, 2026, 06:44 UTC

1 36291U 08056G   26249.28093169  .00000536  00000-0  30484-3 0  9997
2 36291  98.4012 270.7731 0168153 207.9168 151.2904 14.06789968907748

Отслеживайте CZ-2D DEB в реальном времени с AllMySat

Download on the App Store